This demonstration page uses our WeatherBlox Daily Observations layout. Learn more.

Left ArrowRight Arrow

39.12711, -84.51439

Hourly Observations for June 7, 2021

Temp ( °F °C ) Dew Point ( °F °C ) Humidity (%) Winds ( mph kmh ) Pressure ( in mb ) Visibility ( mi km ) Precip ( " mm )
12:53 am 00:53 Mostly Cloudy 67 19.4 66 18.9 97 97 N N/A 30.05 1018 10 16 N/A
1:53 am 01:53 Cloudy 68 20 66 18.9 93 93 N N/A 30.04 1017 10 16 N/A
2:53 am 02:53 Mostly Cloudy 68 20 66 18.9 93 93 N N/A 30.02 1017 7 11 N/A
3:05 am 03:05 Mostly Cloudy with Mist and Fog 67 19.4 66 18.9 97 97 N N/A 30.02 1017 2 3 N/A
3:13 am 03:13 Partly Cloudy with Mist and Fog 67 19.4 66 18.9 97 97 N N/A 30.02 1017 3 5 N/A
3:53 am 03:53 Partly Cloudy 67 19.4 66 18.9 97 97 N N/A 30.01 1016 10 16 N/A
4:53 am 04:53 Mostly Cloudy with Mist and Fog 67 19.4 65 18.3 93 93 N N/A 30.00 1016 6 10 N/A
5:01 am 05:01 Mostly Cloudy with Mist and Fog 67 19.4 66 18.9 97 97 N N/A 30.00 1016 2 3 N/A
5:13 am 05:13 Cloudy with Mist and Fog 66 18.9 65 18.3 96 96 N N/A 30.00 1016 3 5 N/A
5:53 am 05:53 Cloudy 67 19.4 66 18.9 97 97 N N/A 30.00 1016 10 16 0.00 0.00
6:20 am 06:20 Cloudy with Heavy Rain 67 19.4 66 18.9 97 97 SSE 7 11 30.02 1017 2 3 0.10 2.54
6:30 am 06:30 Cloudy with Rain 68 20 66 18.9 93 93 WSW 6 9 30.03 1017 3 5 0.13 3.30
6:42 am 06:42 Cloudy with Heavy Rain 69 20.6 67 19.4 93 93 VRB 5 7 30.02 1017 2 3 0.22 5.59
6:51 am 06:51 Cloudy with Rain 70 21 68 20 94 94 N N/A 30.03 1017 3 5 0.26 6.60
6:53 am 06:53 Cloudy with Rain 69 20.6 68 20 96 96 N N/A 30.03 1017 3 5 0.27 6.86
7:05 am 07:05 Cloudy with Rain 69 20.6 67 19.4 93 93 WSW 13 20 30.05 1018 3 5 0.01 0.25
7:53 am 07:53 Cloudy with Light Rain 70 21.1 68 20 93 93 E 5 7 30.04 1017 6 10 0.29 7.37
8:53 am 08:53 Mostly Cloudy with Mist and Fog 72 22.2 70 21.1 94 94 N N/A 30.05 1018 4 6 0.01 0.25
9:49 am 09:49 Mostly Cloudy with Mist and Fog 73 23 70 21 89 89 SE 5 7 30.05 1018 6 10 N/A
9:53 am 09:53 Mostly Cloudy with Mist and Fog 74 23.3 70 21.1 88 88 SE 3 6 30.06 1018 6 10 N/A
10:53 am 10:53 Mostly Cloudy with Haze 76 24.4 71 21.7 85 85 S 12 19 30.05 1018 5 8 N/A
11:51 am 11:51 Mostly Cloudy 79 26 70 21 74 74 SSW 13 20 30.04 1017 8 13 N/A
11:53 am 11:53 Mostly Cloudy 78 25.6 70 21.1 76 76 S 10 17 30.05 1018 8 13 N/A
12:53 pm 12:53 Partly Cloudy 80 26.7 70 21.1 71 71 S 10 17 30.04 1017 10 16 N/A
1:53 pm 13:53 Mostly Cloudy 81 27.2 69 20.6 67 67 SSW 14 22 30.03 1017 10 16 N/A
2:53 pm 14:53 Mostly Cloudy 78 25.6 71 21.7 79 79 SSW 7 11 30.02 1017 10 16 0.11 2.79
3:53 pm 15:53 Mostly Cloudy 80 26.7 70 21.1 71 71 S 10 17 30.00 1016 10 16 N/A
4:53 pm 16:53 Mostly Sunny 80 26.7 69 20.6 69 69 S 12 19 29.99 1016 10 16 N/A
5:53 pm 17:53 Partly Cloudy 80 26.7 69 20.6 69 69 SSW 13 20 29.98 1015 10 16 N/A
6:53 pm 18:53 Partly Cloudy 79 26.1 70 21.1 74 74 SSE 5 7 29.98 1015 10 16 N/A
7:53 pm 19:53 Partly Cloudy 77 25 70 21.1 79 79 SSE 7 11 29.98 1015 10 16 N/A
8:53 pm 20:53 Partly Cloudy 76 24.4 69 20.6 79 79 SSE 5 7 29.99 1016 10 16 N/A
9:53 pm 21:53 Clear 72 22.2 69 20.6 91 91 N N/A 30.01 1016 10 16 N/A
10:53 pm 22:53 Clear 70 21.1 68 20 93 93 N N/A 30.03 1017 10 16 N/A
11:53 pm 23:53 Mostly Cloudy 69 20.6 68 20 96 96 N N/A 30.05 1018 7 11 N/A

Powered by AerisWeather